CW2014 Weather Reports


Display with metric or nautical units.
time (UTC)temp
F
wind
direction
speed
MPH
gust
MPH
rain 1hr
in
rain 24hr
in
rain mn
in
humidity
%
barometer
mb
20260505220524 78 288 3.0 18.0 0.00 0.07 0.07 28 1007.8
20260505220046 78 244 7.0 18.0 0.00 0.07 0.07 27 1008.0
20260505215529 78 287 6.0 16.0 0.00 0.07 0.07 28 1008.0
20260505215025 78 268 6.0 16.0 0.00 0.07 0.07 27 1007.9
20260505214544 78 257 6.0 16.0 0.00 0.07 0.07 28 1008.1
20260505214025 78 288 6.0 19.0 0.00 0.07 0.07 29 1008.1
20260505213524 78 231 8.0 19.0 0.00 0.07 0.07 29 1008.2
20260505213051 77 242 3.0 16.0 0.00 0.07 0.07 31 1008.1
20260505212529 77 316 5.0 16.0 0.00 0.07 0.07 30 1008.2
20260505212025 76 244 4.0 17.0 0.00 0.07 0.07 31 1008.2
20260505211539 76 228 5.0 17.0 0.00 0.07 0.07 31 1008.5
20260505211025 77 205 6.0 14.0 0.00 0.07 0.07 31 1008.5
20260505210524 77 266 5.0 14.0 0.00 0.07 0.07 32 1008.6
20260505210038 76 265 7.0 14.0 0.00 0.07 0.07 33 1008.6
20260505205525 76 306 5.0 12.0 0.00 0.07 0.07 33 1008.6
20260505205028 76 278 2.0 14.0 0.00 0.07 0.07 34 1008.6
20260505204539 76 270 4.0 15.0 0.00 0.07 0.07 34 1008.7
20260505204024 76 284 8.0 15.0 0.00 0.07 0.07 33 1008.8
20260505203526 76 223 6.0 15.0 0.00 0.07 0.07 34 1008.8
20260505203042 76 324 8.0 15.0 0.00 0.07 0.07 33 1008.8
20260505202524 76 261 5.0 14.0 0.00 0.07 0.07 34 1008.8
20260505202023 76 241 6.0 14.0 0.00 0.07 0.07 36 1008.8
20260505201543 75 317 6.0 14.0 0.00 0.07 0.07 38 1008.8
20260505201025 75 304 6.0 15.0 0.00 0.07 0.07 38 1008.8
20260505200527 75 296 6.0 15.0 0.00 0.07 0.07 38 1009.0
20260505200043 75 296 4.0 14.0 0.00 0.07 0.07 39 1008.9
20260505195528 75 262 3.0 13.0 0.00 0.07 0.07 39 1009.0
20260505195024 75 302 7.0 15.0 0.00 0.07 0.07 39 1009.1
20260505194539 75 247 4.0 15.0 0.00 0.07 0.07 40 1009.1
20260505194025 74 261 4.0 11.0 0.00 0.07 0.07 41 1009.1
20260505193525 74 223 4.0 13.0 0.00 0.07 0.07 40 1009.1
20260505193039 74 255 6.0 15.0 0.00 0.07 0.07 40 1009.2
20260505192528 73 272 8.0 15.0 0.00 0.07 0.07 41 1009.3
20260505192025 73 240 3.0 11.0 0.00 0.07 0.07 41 1009.4
20260505191606 73 236 4.0 11.0 0.00 0.07 0.07 41 1009.5
20260505191027 74 257 4.0 11.0 0.00 0.07 0.07 41 1009.6
20260505190525 74 247 3.0 11.0 0.00 0.07 0.07 40 1009.5
20260505190042 73 254 2.0 17.0 0.00 0.07 0.07 41 1009.6
20260505185524 74 256 7.0 17.0 0.00 0.07 0.07 41 1009.7
20260505185025 74 275 6.0 13.0 0.00 0.07 0.07 42 1009.7
20260505184539 73 352 6.0 13.0 0.00 0.07 0.07 42 1009.7
20260505184025 74 301 5.0 12.0 0.00 0.07 0.07 42 1009.7
20260505183524 74 225 5.0 11.0 0.00 0.07 0.07 41 1009.7
20260505183040 73 285 6.0 14.0 0.00 0.07 0.07 42 1009.8
20260505182525 73 281 8.0 14.0 0.00 0.07 0.07 43 1009.9
20260505182024 73 246 4.0 11.0 0.00 0.07 0.07 43 1009.8
20260505181535 72 199 3.0 12.0 0.00 0.07 0.07 45 1009.8
20260505181026 72 294 5.0 12.0 0.00 0.07 0.07 45 1009.7
20260505180525 73 224 6.0 14.0 0.00 0.07 0.07 43 1009.8
20260505180059 73 224 7.0 14.0 0.00 0.07 0.07 44 1009.9
20260505175525 72 266 6.0 14.0 0.00 0.07 0.07 45 1009.7
20260505175026 72 275 4.0 11.0 0.00 0.07 0.07 46 1009.8
20260505174551 72 194 2.0 11.0 0.00 0.07 0.07 48 1009.9
20260505174025 71 251 4.0 9.0 0.00 0.07 0.07 49 1009.9
20260505173527 71 167 4.0 9.0 0.00 0.07 0.07 50 1009.9
20260505173041 71 184 3.0 11.0 0.00 0.07 0.07 50 1009.9
20260505172525 71 242 3.0 11.0 0.00 0.07 0.07 51 1009.9
20260505172025 71 234 4.0 10.0 0.00 0.07 0.07 52 1009.9
20260505171539 70 232 4.0 11.0 0.00 0.07 0.07 52 1009.9
20260505171025 70 267 4.0 11.0 0.00 0.07 0.07 53 1009.9
20260505170525 70 210 3.0 8.0 0.00 0.07 0.07 54 1009.9
20260505170039 69 226 2.0 12.0 0.00 0.07 0.07 54 1009.9
20260505165525 70 249 5.0 12.0 0.00 0.07 0.07 54 1009.9
20260505165025 70 217 3.0 10.0 0.00 0.07 0.07 54 1009.9
20260505164549 70 233 4.0 9.0 0.00 0.07 0.07 54 1009.9
20260505164029 70 196 5.0 12.0 0.00 0.07 0.07 54 1009.9
20260505163525 70 208 3.0 12.0 0.00 0.07 0.07 54 1009.8
20260505163040 70 277 6.0 12.0 0.00 0.07 0.07 53 1009.8
20260505162525 71 323 4.0 11.0 0.00 0.07 0.07 54 1009.9
20260505162025 71 248 3.0 10.0 0.00 0.07 0.07 54 1009.8
20260505161540 70 268 4.0 11.0 0.00 0.07 0.07 55 1009.8
20260505161025 69 263 5.0 12.0 0.00 0.07 0.07 56 1009.9
20260505160525 69 180 7.0 12.0 0.00 0.07 0.07 56 1010.0
20260505153045 69 0 2.0 8.0 0.00 0.07 0.07 60 1009.7
20260505152525 69 252 3.0 8.0 0.00 0.07 0.07 61 1009.7
20260505152025 69 209 2.0 8.0 0.00 0.07 0.07 62 1009.7
20260505151543 68 238 2.0 8.0 0.00 0.07 0.07 64 1009.7
20260505151026 67 200 3.0 8.0 0.00 0.07 0.07 65 1009.7
20260505150525 67 192 3.0 8.0 0.00 0.07 0.07 66 1009.7
20260505140526 63 139 0.0 6.0 0.00 0.07 0.07 81 1009.7
20260505125025 63 193 4.0 7.0 0.00 0.07 0.07 79 1009.0
20260505124545 63 200 2.0 8.0 0.00 0.07 0.07 79 1009.0
20260505124025 63 151 3.0 8.0 0.00 0.07 0.07 79 1009.0
20260505123524 63 144 3.0 7.0 0.00 0.07 0.07 78 1009.0
20260505123040 63 178 4.0 7.0 0.00 0.07 0.07 78 1009.0
20260505122524 63 183 3.0 7.0 0.00 0.07 0.07 77 1008.8
20260505122025 63 196 3.0 7.0 0.00 0.07 0.07 77 1008.8
20260505121539 63 167 3.0 7.0 0.00 0.07 0.07 77 1008.8
20260505121025 62 171 3.0 6.0 0.00 0.07 0.07 79 1008.7
20260505120524 62 140 1.0 4.0 0.00 0.07 0.07 80 1008.7
20260505120039 62 163 2.0 6.0 0.00 0.07 0.07 80 1008.7
20260505115524 62 158 1.0 6.0 0.00 0.07 0.07 80 1008.8
20260505115024 62 140 3.0 6.0 0.00 0.07 0.07 79 1008.8
20260505114540 62 164 2.0 7.0 0.00 0.07 0.07 79 1008.7
20260505114028 62 140 2.0 8.0 0.00 0.07 0.07 79 1008.7
20260505113524 62 194 4.0 9.0 0.00 0.07 0.07 79 1008.6
20260505113050 62 160 4.0 9.0 0.00 0.07 0.07 78 1008.5
20260505112526 62 170 4.0 10.0 0.00 0.07 0.07 78 1008.6
20260505112024 62 165 4.0 10.0 0.00 0.07 0.07 78 1008.7
20260505111540 62 186 3.0 9.0 0.00 0.07 0.07 78 1008.7
20260505111026 62 144 4.0 10.0 0.00 0.07 0.07 78 1008.7
20260505110528 62 183 4.0 11.0 0.00 0.07 0.07 79 1008.8
20260505102025 62 171 5.0 10.0 0.00 0.07 0.07 77 1009.6
20260505101555 63 186 4.0 9.0 0.00 0.07 0.07 77 1009.6
20260505101025 63 163 4.0 9.0 0.00 0.07 0.07 77 1009.6
20260505100525 63 184 3.0 8.0 0.00 0.07 0.07 77 1009.6
20260505100058 62 193 3.0 8.0 0.00 0.07 0.07 78 1009.8
20260505095527 62 170 4.0 8.0 0.00 0.07 0.07 78 1009.8
20260505095025 62 169 4.0 8.0 0.00 0.07 0.07 79 1009.9
20260505094541 62 195 4.0 8.0 0.00 0.07 0.07 80 1009.8
20260505094025 62 193 4.0 8.0 0.01 0.07 0.07 81 1009.8
20260505093525 62 184 4.0 7.0 0.01 0.07 0.07 82 1009.7
20260505093040 61 126 3.0 6.0 0.02 0.07 0.07 82 1009.8
20260505092525 61 199 2.0 7.0 0.03 0.07 0.07 83 1009.8
20260505092024 61 182 2.0 7.0 0.04 0.07 0.07 84 1009.9
20260505091539 61 157 3.0 8.0 0.04 0.07 0.07 84 1009.9
20260505091025 61 140 3.0 8.0 0.05 0.07 0.07 85 1010.1
20260505090524 61 180 4.0 8.0 0.05 0.07 0.07 86 1010.0
20260505090044 61 121 2.0 6.0 0.05 0.07 0.07 85 1010.3
20260505085524 61 144 2.0 5.0 0.05 0.07 0.07 85 1010.1
20260505085024 61 146 2.0 7.0 0.05 0.07 0.07 84 1010.3
20260505084541 61 146 2.0 7.0 0.05 0.07 0.07 84 1010.4
20260505084024 61 180 3.0 10.0 0.05 0.06 0.06 83 1010.6
20260505083526 61 159 3.0 12.0 0.05 0.05 0.05 83 1010.7
20260505083040 61 207 4.0 13.0 0.05 0.05 0.05 82 1010.7
20260505082525 61 173 7.0 17.0 0.04 0.04 0.04 80 1011.1
20260505082025 61 162 6.0 17.0 0.03 0.03 0.03 80 1011.0
20260505081546 61 198 7.0 16.0 0.03 0.03 0.03 79 1010.9
20260505081025 61 173 6.0 15.0 0.02 0.02 0.02 79 1010.7
20260505080525 62 171 5.0 14.0 0.02 0.02 0.02 79 1010.6
20260505080047 62 173 6.0 20.0 0.02 0.02 0.02 77 1010.7
20260505075525 62 157 9.0 20.0 0.02 0.02 0.02 75 1010.8
20260505075024 63 145 6.0 14.0 0.02 0.02 0.02 73 1010.7
20260505074535 63 165 7.0 15.0 0.02 0.02 0.02 71 1010.8
20260505074024 64 147 7.0 15.0 0.01 0.01 0.01 67 1010.7
20260505073524 66 169 6.0 12.0 0.00 0.00 0.00 63 1010.7
20260505073043 67 167 5.0 11.0 0.00 0.00 0.00 57 1010.8
20260505072525 68 194 4.0 12.0 0.00 0.00 0.00 55 1010.6
20260505072025 68 191 7.0 12.0 0.00 0.00 0.00 51 1010.6
20260505071550 68 205 6.0 12.0 0.00 0.00 0.00 50 1010.6
20260505071025 69 232 5.0 9.0 0.00 0.00 0.00 48 1010.4
20260505070526 68 216 4.0 8.0 0.00 0.00 0.00 47 1010.4
20260505070040 68 188 3.0 10.0 0.00 0.00 0.00 48 1010.5
20260505065525 68 229 5.0 10.0 0.00 0.00 0.00 48 1010.3
20260505065025 69 194 5.0 10.0 0.00 0.00 0.00 47 1010.3
20260505064538 69 216 4.0 12.0 0.00 0.00 0.00 47 1010.1
20260505064024 69 204 4.0 13.0 0.00 0.00 0.00 46 1009.9
20260505063524 69 203 7.0 13.0 0.00 0.00 0.00 46 1009.9
20260505063047 69 148 4.0 14.0 0.00 0.00 0.00 45 1009.8
20260505062524 69 171 5.0 16.0 0.00 0.00 0.00 45 1009.9
20260505062025 69 171 8.0 17.0 0.00 0.00 0.00 44 1009.8
20260505061545 70 144 6.0 17.0 0.00 0.00 0.00 42 1009.8
20260505061026 70 183 6.0 15.0 0.00 0.00 0.00 40 1009.9
20260505060525 70 152 6.0 15.0 0.00 0.00 0.00 38 1009.8
20260505060043 71 171 6.0 14.0 0.00 0.00 0.00 36 1009.8
20260505055525 71 201 3.0 13.0 0.00 0.00 0.00 34 1009.8
20260505055025 71 212 4.0 13.0 0.00 0.00 0.00 33 1009.9
20260505054546 71 186 7.0 13.0 0.00 0.00 0.00 33 1010.2
20260505054026 71 162 4.0 12.0 0.00 0.00 0.00 32 1010.4
20260505053524 71 209 4.0 12.0 0.00 0.00 0.00 32 1010.3
20260505053044 72 179 6.0 11.0 0.00 0.00 0.00 31 1010.5
20260505052528 72 184 4.0 11.0 0.00 0.00 0.00 31 1010.5
20260505052028 72 202 6.0 16.0 0.00 0.00 0.00 30 1010.6
20260505051542 72 188 5.0 16.0 0.00 0.00 0.00 29 1010.6
20260505051024 72 200 5.0 12.0 0.00 0.00 0.00 29 1010.6
20260505050524 72 237 6.0 15.0 0.00 0.00 0.00 29 1010.5
20260505041539 73 205 5.0 13.0 0.00 0.00 0.00 31 1010.5
20260505041025 73 155 5.0 13.0 0.00 0.00 0.00 32 1010.3
20260505040526 73 199 6.0 15.0 0.00 0.00 0.00 33 1010.4
20260505040040 73 254 7.0 15.0 0.00 0.00 0.00 38 1010.1
20260505035524 73 219 3.0 6.0 0.00 0.00 0.00 43 1009.9
20260505035024 73 203 2.0 8.0 0.00 0.00 0.00 43 1009.8
20260505034545 73 213 3.0 8.0 0.00 0.00 0.00 43 1009.7
20260505034026 74 223 4.0 9.0 0.00 0.00 0.00 43 1009.7
20260505033525 74 210 3.0 9.0 0.00 0.00 0.00 43 1009.7
20260505033040 74 213 4.0 10.0 0.00 0.00 0.00 43 1009.7
20260505032525 74 229 5.0 10.0 0.00 0.00 0.00 42 1009.4
20260505032024 74 209 4.0 10.0 0.00 0.00 0.00 42 1009.2
20260505031544 74 190 4.0 9.0 0.00 0.00 0.00 42 1009.2
20260505031027 74 219 4.0 9.0 0.00 0.00 0.00 42 1009.2
20260505030525 74 196 2.0 8.0 0.00 0.00 0.00 41 1009.3
20260505030041 74 214 4.0 8.0 0.00 0.00 0.00 41 1009.2
20260505025526 74 218 4.0 10.0 0.00 0.00 0.00 40 1009.3
20260505025025 74 216 6.0 10.0 0.00 0.00 0.00 39 1009.2
20260505024539 75 198 4.0 8.0 0.00 0.00 0.00 39 1009.2
20260505024026 75 198 3.0 8.0 0.00 0.00 0.00 38 1009.1
20260505023524 75 205 3.0 8.0 0.00 0.00 0.00 38 1009.1
20260505023050 75 230 3.0 10.0 0.00 0.00 0.00 38 1009.2
20260505022524 75 230 4.0 10.0 0.00 0.00 0.00 36 1009.3
20260505022025 75 178 5.0 10.0 0.00 0.00 0.00 36 1009.4
20260505021544 75 196 5.0 11.0 0.00 0.00 0.00 36 1009.2
20260505021025 75 250 4.0 11.0 0.00 0.00 0.00 37 1009.2
20260505020526 76 232 3.0 8.0 0.00 0.00 0.00 37 1009.1
20260505020040 76 209 4.0 8.0 0.00 0.00 0.00 36 1008.9
20260505015525 76 271 3.0 7.0 0.00 0.00 0.00 36 1009.0
20260505015025 76 243 2.0 7.0 0.00 0.00 0.00 36 1008.8
20260505014540 76 196 2.0 7.0 0.00 0.00 0.00 36 1008.7
20260505014024 76 246 3.0 7.0 0.00 0.00 0.00 36 1008.6
20260505013524 76 209 1.0 6.0 0.00 0.00 0.00 36 1008.6
20260505013039 76 298 2.0 7.0 0.00 0.00 0.00 36 1008.6
20260505012524 76 227 2.0 7.0 0.00 0.00 0.00 36 1008.8
20260505012024 77 215 2.0 6.0 0.00 0.00 0.00 36 1008.7
20260505011548 77 284 1.0 7.0 0.00 0.00 0.00 35 1008.7
20260505011027 77 279 2.0 7.0 0.00 0.00 0.00 35 1008.8
20260505010525 77 265 1.0 8.0 0.00 0.00 0.00 36 1008.8
20260505005525 77 274 3.0 8.0 0.00 0.00 0.00 36 1008.8
20260505005026 77 281 2.0 6.0 0.00 0.00 0.00 37 1008.7
20260505004540 77 270 2.0 6.0 0.00 0.00 0.00 36 1008.8
20260505004026 77 204 2.0 6.0 0.00 0.00 0.00 35 1008.7
20260505003524 77 232 2.0 6.0 0.00 0.00 0.00 35 1008.7
20260505003043 77 301 2.0 5.0 0.00 0.00 0.00 36 1008.7
20260505002524 77 322 2.0 8.0 0.00 0.00 0.00 36 1008.8
20260505002024 77 285 1.0 8.0 0.00 0.00 0.00 36 1008.7
20260505001539 77 268 4.0 8.0 0.00 0.00 0.00 36 1008.8
20260505001024 77 342 3.0 8.0 0.00 0.00 0.00 36 1008.8
20260505000525 77 292 2.0 10.0 0.00 0.00 0.00 36 1008.9
20260505000048 77 261 5.0 10.0 0.00 0.00 0.00 36 1009.1
20260504235526 77 315 4.0 9.0 0.00 0.00 0.00 36 1009.0
20260504235025 77 299 4.0 10.0 0.00 0.00 0.00 36 1009.0
20260504234543 77 269 4.0 10.0 0.00 0.00 0.00 36 1009.1
20260504234026 77 286 4.0 9.0 0.00 0.00 0.00 36 1009.2
20260504233525 77 301 4.0 9.0 0.00 0.00 0.00 36 1009.2
20260504233040 77 247 3.0 9.0 0.00 0.00 0.00 36 1009.1
20260504232550 77 300 4.0 8.0 0.00 0.00 0.00 37 1008.9
20260504232024 78 289 3.0 8.0 0.00 0.00 0.00 37 1008.8
20260504231544 78 289 1.0 6.0 0.00 0.00 0.00 36 1008.8
20260504231024 78 266 2.0 10.0 0.00 0.00 0.00 36 1008.9
20260504230524 78 269 4.0 10.0 0.00 0.00 0.00 36 1009.0
20260504230044 78 253 3.0 8.0 0.00 0.00 0.00 36 1009.0
20260504225525 78 288 3.0 11.0 0.00 0.00 0.00 37 1009.1
20260504225024 78 267 4.0 11.0 0.00 0.00 0.00 37 1009.2
20260504224538 78 285 5.0 11.0 0.00 0.00 0.00 37 1009.2
20260504224024 78 292 7.0 11.0 0.00 0.00 0.00 37 1009.4
20260504223525 78 302 4.0 9.0 0.00 0.00 0.00 37 1009.4
20260504223050 78 284 5.0 9.0 0.00 0.00 0.00 37 1009.3
20260504222523 78 294 3.0 12.0 0.00 0.00 0.00 37 1009.3
20260504222024 78 213 5.0 12.0 0.00 0.00 0.00 38 1009.1
20260504221554 77 234 3.0 13.0 0.00 0.00 0.00 39 1009.1
20260504221025 77 171 4.0 13.0 0.00 0.00 0.00 38 1009.1